Weather History for Rifle, CO

Change the Weather History Date:

Tuesday, April 30, 2013

  Actual Average Record
Temperature  
Mean Temperature 57 °F 52 °F  
Max Temperature 74 °F 67 °F 90 °F (1992)
Min Temperature 39 °F 37 °F 23 °F (1917)
Degree Days  
Heating Degree Days 8 13  
Month to date heating degree days 616 512  
Since 1 July heating degree days 6430 6297  
Cooling Degree Days 0 0  
Month to date cooling degree days 0 0  
Year to date cooling degree days 0 0  
Growing Degree Days 8 (Base 50)    
Moisture  
Dew Point 30 °F    
Average Humidity 49    
Maximum Humidity 82    
Minimum Humidity 16    
Precipitation  
Precipitation 0.18 in 0.04 in 0.96 in (1983)
Month to date precipitation 1.64 1.14  
Year to date precipitation 2.96 3.91  
Sea Level Pressure  
Sea Level Pressure 29.58 in    
Wind  
Wind Speed 14 mph (WNW)    
Max Wind Speed 43 mph    
Max Gust Speed 53 mph    
Visibility 10 miles    
Events Rain    
T = Trace of Precipitation, MM = Missing Value Source: NWS Daily Summary

Daily Weather History Graph

Daily Weather History Graph

Search for Another Location

Airport:

Trip Planner

Search our weather history database for the weather conditions in past years. The results will help you decide how hot, cold, wet, or windy it might be!

Date:

Astronomy

Apr. 30, 2013 Rise Set
Actual Time 6:12 AM MDT 8:04 PM MDT
Civil Twilight 5:43 AM MDT 8:33 PM MDT
Nautical Twilight 5:08 AM MDT 9:08 PM MDT
Astronomical Twilight 4:30 AM MDT 9:46 PM MDT
Moon 12:29 AM MDT (4/30) 10:45 AM MDT (4/30)
Length of Visible Light 14h 49m
Length of Day
13h 51m
Waning Gibbous, 69% of the Moon is Illuminated
Apr 30
Waning Gibbous
May 2
Last Quarter
May 9
New
May 17
First Quarter
May 24
Full

Hourly Weather History & Observations

Time (MDT) Temp. Windchill Dew Point Humidity Pressure Visibility Wind Dir Wind Speed Gust Speed Precip Events Conditions
12:53 AM 51.1 °F - 28.0 °F 41% 29.58 in 10.0 mi Variable 4.6 mph - N/A   Clear
1:53 AM 48.0 °F - 33.1 °F 56% 29.57 in 10.0 mi NNW 3.5 mph - N/A   Clear
2:53 AM 48.9 °F - 28.9 °F 46% 29.56 in 10.0 mi West 3.5 mph - N/A   Clear
3:53 AM 46.0 °F 41.4 °F 28.9 °F 51% 29.57 in 10.0 mi WSW 9.2 mph - N/A   Clear
4:53 AM 45.0 °F 43.5 °F 30.9 °F 58% 29.59 in 10.0 mi ESE 3.5 mph - N/A   Clear
5:53 AM 44.1 °F 41.5 °F 30.9 °F 60% 29.58 in 10.0 mi WSW 4.6 mph - N/A   Partly Cloudy
6:53 AM 46.9 °F - 32.0 °F 56% 29.60 in 10.0 mi WSW 4.6 mph - N/A   Scattered Clouds
7:53 AM 50.0 °F - 34.0 °F 54% 29.61 in 10.0 mi NNW 6.9 mph - N/A   Partly Cloudy
8:53 AM 55.0 °F - 32.0 °F 42% 29.59 in 10.0 mi West 5.8 mph - N/A   Clear
9:53 AM 57.0 °F - 30.9 °F 37% 29.60 in 10.0 mi West 8.1 mph - N/A   Partly Cloudy
10:53 AM 61.0 °F - 33.1 °F 35% 29.59 in 10.0 mi North 6.9 mph - N/A   Partly Cloudy
11:53 AM 64.9 °F - 28.9 °F 26% 29.57 in 10.0 mi North 12.7 mph 16.1 mph N/A   Clear
12:53 PM 66.9 °F - 27.0 °F 22% 29.58 in 10.0 mi West 21.9 mph 44.9 mph N/A   Mostly Cloudy
1:53 PM 69.1 °F - 26.1 °F 20% 29.57 in 10.0 mi SW 27.6 mph 40.3 mph N/A   Scattered Clouds
2:53 PM 71.1 °F - 25.0 °F 18% 29.54 in 10.0 mi West 23.0 mph 29.9 mph N/A   Mostly Cloudy
3:53 PM 73.0 °F - 25.0 °F 17% 29.52 in 10.0 mi West 19.6 mph - N/A   Clear
4:53 PM 72.0 °F - 24.1 °F 17% 29.49 in 10.0 mi West 25.3 mph 38.0 mph N/A   Scattered Clouds
5:53 PM 72.0 °F - 25.0 °F 17% 29.49 in 10.0 mi West 16.1 mph 19.6 mph N/A   Scattered Clouds
6:53 PM 64.0 °F - 33.1 °F 31% 29.57 in 10.0 mi NNW 21.9 mph 33.4 mph N/A   Mostly Cloudy
7:53 PM 61.0 °F - 32.0 °F 34% 29.58 in 10.0 mi NNW 18.4 mph 34.5 mph N/A   Overcast
8:53 PM 60.1 °F - 32.0 °F 35% 29.63 in 10.0 mi West 12.7 mph 17.3 mph 0.00 in   Overcast
9:53 PM 55.0 °F - 36.0 °F 49% 29.70 in 10.0 mi NW 17.3 mph 26.5 mph 0.00 in Rain Light Rain